sat.trackr.live / text

‹ back to catalog

STARLINK-30464

NORAD 57908 · 2023-146T

PAYLOAD ACTIVE UNKNOWN

§ Identity

Operator
Country
US
Launch date
2023-09-20
Launch site
AFETR
Launch vehicle
Mass (kg)
RCS (m²)

Purposes: comms

External: N2YO · Heavens-Above · Gunter

§ Orbital elements

Epoch: 2026-09-20T10:10:43.726944Z

Period
94.27 min
Inclination
43.0061°
Eccentricity
0.0001933
Mean motion
15.27576823 rev/d
Perigee alt
481.7 km
Apogee alt
484.4 km
Semi-major
6,861.2 km
B*
6.4641e-6
RAAN
298.2453°
Arg perigee
277.3972°
Mean anomaly
82.6660°
Rev number
16,573

§ Raw data

STARLINK-304641 57908U 23146T   26263.42411721 -.00000085  00000+0  64641-5 0  99952 57908  43.0061 298.2453 0001933 277.3972  82.6660 15.27576823165737

JSON: /api/v1/satellites/57908 · /tle

For live sub-satellite position, see the globe view (requires WebGL).

§ Visibility from observer

Set your observer location to see the next 7 days of passes ≥ 10°. The values pass through the URL so the page stays shareable.

No JS? Fill the form by hand. The geolocation button needs JavaScript.